{"data":{"norad_id":48101,"intl_designator":"2021-027K","name":"STARLINK-2436","alt_names":[],"object_type":"PAYLOAD","status":"ACTIVE","operator":null,"country":"US","launch_date":"2021-04-07","launch_site_code":"AFETR","launch_vehicle":null,"mission":null,"orbit_class":"UNKNOWN","rcs_meters":null,"size_class":null,"mass_kg":null,"dimensions":null,"purposes":["comms"],"wikipedia_slug":null,"has_3d_model":false,"image_url":null,"decayed_at":null,"tle_current":{"epoch":"2026-05-24T17:57:33.142464Z","epoch_age_seconds":92857,"freshness":"FRESH","line1":"1 48101U 21027K   26144.74830026  .00001580  00000+0  62656-4 0  9995","line2":"2 48101  53.1589 161.3031 0001408  82.0444 278.0718 15.31705002284312","mean_motion":15.31705002,"eccentricity":0.0001408,"inclination_deg":53.1589,"raan_deg":161.3031,"arg_perigee_deg":82.0444,"mean_anomaly_deg":278.0718,"bstar":6.2656e-5,"rev_number":28431,"period_min":94.012880947685,"perigee_km":469.760764783,"apogee_km":471.68940434602,"semimajor_km":6848.8620845645,"source":"CELESTRAK","updated_at":"2026-05-25T13:38:16.642966Z"}}}